EDT,Max TemperatureF,Mean TemperatureF,Min TemperatureF,Max Dew PointF,MeanDew PointF,Min DewpointF,Max Humidity, Mean Humidity, Min Humidity, Max Sea Level PressureIn, Mean Sea Level PressureIn, Min Sea Level PressureIn, Max VisibilityMiles, Mean VisibilityMiles, Min VisibilityMiles, Max Wind SpeedMPH, Mean Wind SpeedMPH, Max Gust SpeedMPH,PrecipitationIn, CloudCover, Events, WindDirDegrees
2013-3-1,28,26,23,21,17,14,75,70,61,30.17,30.11,30.01,10,10,10,15,12,,0.00,8,,15
2013-3-2,26,22,19,16,15,13,80,70,60,30.14,30.11,30.08,10,10,9,15,10,,0.00,7,,351
2013-3-3,28,22,15,16,12,9,78,67,54,30.10,30.07,30.02,10,10,10,12,9,,0.00,3,,325
2013-3-4,30,20,10,16,12,7,84,69,54,30.17,30.14,30.11,10,10,10,9,4,,0.00,0,,290
2013-3-5,30,21,12,25,19,9,86,79,69,30.17,30.02,29.92,10,10,7,22,10,28,0.00,6,,49
2013-3-6,37,32,26,28,26,21,86,79,70,30.24,30.13,29.94,10,10,6,16,11,,0.00,5,Snow,37
2013-3-7,34,30,23,29,23,14,92,72,52,30.44,30.32,30.21,10,8,2,15,5,,0.00,7,Snow,336
2013-3-8,37,28,19,24,18,13,81,66,48,30.53,30.48,30.43,10,10,10,8,4,,0.00,0,,286
2013-3-9,42,32,23,31,26,20,91,73,55,30.42,30.26,30.05,10,9,4,12,6,,0.00,3,Rain,153
2013-3-10,50,42,35,40,35,30,93,77,62,30.01,29.89,29.78,10,9,4,14,6,,0.05,7,Rain,162
2013-3-11,51,44,37,47,41,32,93,84,63,29.78,29.57,29.44,10,8,2,21,9,31,0.31,8,Rain,194
2013-3-12,36,33,28,32,27,22,89,78,64,29.89,29.77,29.61,10,9,1,21,15,29,0.00,8,Rain-Snow,246
2013-3-13,34,29,24,22,17,9,80,66,41,30.21,29.98,29.84,10,8,1,21,13,30,0.00,6,Snow,291
2013-3-14,37,29,21,21,17,12,78,59,43,30.27,30.19,30.06,10,10,10,13,10,,0.00,0,,268
2013-3-15,39,34,30,30,27,19,78,73,60,30.05,29.92,29.86,10,9,6,16,11,24,0.00,7,,249
2013-3-16,30,26,23,24,21,19,88,81,69,30.06,29.89,29.82,10,5,1,16,12,,0.02,8,Snow,39
2013-3-17,26,22,19,20,11,4,81,64,48,30.35,30.25,30.08,10,10,10,15,10,,0.00,2,,38
2013-3-18,34,26,19,30,25,11,93,83,64,30.24,29.73,29.54,10,4,0,18,9,,0.11,6,Fog-Snow,99
2013-3-19,34,28,21,30,18,13,87,74,62,29.90,29.70,29.54,10,6,1,28,19,38,0.00,7,Snow,248
2013-3-20,27,22,18,18,12,9,74,64,55,29.95,29.90,29.86,10,8,2,22,13,29,0.00,5,Snow,259
2013-3-21,32,24,17,20,17,10,81,70,56,29.94,29.87,29.81,10,9,2,20,13,23,0.00,8,Snow,289
2013-3-22,37,31,25,23,19,16,75,66,53,30.05,29.99,29.94,10,10,10,14,10,,0.00,6,,291
2013-3-23,36,32,28,24,22,20,78,68,60,30.14,30.09,30.05,10,10,10,9,6,41,0.00,6,,311
2013-3-24,36,30,25,27,24,21,85,75,59,30.07,29.92,29.75,10,10,10,25,10,32,0.00,4,,44
2013-3-25,39,36,32,30,27,24,79,71,62,29.96,29.79,29.70,10,10,10,28,18,32,0.00,7,,29
2013-3-26,44,38,32,32,27,22,82,67,53,30.12,30.04,29.97,10,10,9,16,10,17,0.00,7,Rain-Snow,302
2013-3-27,48,38,30,26,24,22,73,58,40,30.22,30.16,30.12,10,10,10,20,12,25,0.00,5,,296
2013-3-28,52,41,30,25,23,21,72,52,32,30.28,30.24,30.21,10,10,10,14,9,,0.00,3,,299
2013-3-29,52,40,28,27,22,20,78,52,33,30.30,30.26,30.21,10,10,10,12,6,,0.00,1,,264
2013-3-30,54,40,28,27,24,19,81,52,26,30.23,30.10,29.90,10,10,10,14,5,21,0.00,1,,221
2013-3-31,55,45,35,40,34,28,82,68,49,29.87,29.69,29.62,10,8,4,24,13,30,0.01,6,Rain-Snow,243